#timestamp,LO_Frequency,Hit 
1503817215.3,286047001.7,N
1503817235.1,286047003.4,N
1503817255.9,286047003.5,N
1503817275.7,286047001.6,N
1503817295.5,286047004.4,N
1503817315.3,286047003.9,N
1503817335.1,286047003.9,N
1503817355.9,286047004.0,N
1503817375.7,286047004.4,N
1503817395.5,286047002.0,N
1503817415.3,286047004.2,N
1503817435.2,286047003.4,N
1503817455.0,286047003.6,N
1503817455.9,286047003.6,N
1503817475.7,286047003.3,N
1503817495.6,286047003.4,N
1503817515.4,286047002.5,N
1503817535.2,286046998.3,N
1503817555.1,286046998.6,N
1503817556.0,286046998.6,N
1503817575.8,286046996.5,N
1503817595.6,286047000.0,N
1503817615.5,286047000.5,N
1503817635.3,286046999.0,N
1503817655.1,286046997.4,N
1503817675.9,286046998.7,N
1503817695.7,286046999.4,N
1503817715.5,286046996.6,N
1503817735.3,286046999.3,N
1503817755.2,286046996.9,N
1503817775.0,286046999.6,N
1503817775.9,286046999.6,N
1503817795.7,286046999.4,N
1503817815.6,286046997.0,N
1503817835.4,286046997.2,N
1503817855.2,286047001.1,N
1503817875.1,286046998.2,N
1503817876.0,286046998.2,N
1503817895.8,286046999.0,N
1503817915.6,286046998.3,N
1503817935.5,286046996.8,N
1503817955.3,286046995.1,N
1503817975.1,286046995.5,N
1503817995.9,286046995.3,N
1503818015.7,286046997.3,N
1503818035.5,286046996.1,N
1503818055.4,286046997.7,N
1503818075.2,286046996.7,N
1503818095.0,286046996.2,N
1503818095.9,286046996.2,N
1503818115.8,286046995.9,N
1503818135.6,286046996.0,N
1503818155.4,286046995.5,N
1503818175.3,286046992.6,P
1503818195.1,286046993.4,N
1503818196.0,286046993.4,P
1503818215.8,286046994.0,P
1503818235.7,286046996.9,P
1503818255.5,286046998.9,N
1503818275.3,286046997.5,N
1503818295.2,286046997.8,N
1503818315.9,286046997.5,N
1503818335.7,286046995.0,N
1503818355.6,286046997.5,N
1503818375.4,286046996.9,N
1503818395.2,286047000.3,N
1503818415.0,286046998.8,N
1503818416.0,286046998.8,N
1503818435.8,286046998.6,N
1503818455.6,286047000.4,N
1503818475.4,286047001.5,N
1503818495.3,286047001.0,N
1503818515.1,286046998.3,N
1503818535.8,286046999.6,N
1503818555.7,286046998.9,N
1503818575.5,286046997.0,N
1503818595.3,286046996.7,N
1503818615.2,286046996.9,N
1503818635.9,286046997.0,N
1503818655.7,286047001.0,N
1503818675.6,286046999.2,N
1503818695.4,286047001.9,N
1503818715.2,286047002.1,N
1503818735.0,286047002.3,N
1503818736.0,286047002.3,N
1503818755.8,286046998.3,N
1503818775.6,286047000.7,N
1503818795.4,286047002.3,N
1503818815.3,286047000.6,N
1503818835.1,286047000.9,N
1503818855.8,286046999.9,N
1503818875.7,286046999.8,N
1503818895.5,286047002.2,N
1503818915.3,286046999.7,N
1503818935.2,286047001.6,N
1503818955.9,286047004.2,N
1503818975.7,286047002.1,N
1503818995.6,286047001.9,N
1503819015.4,286047001.7,N
1503819035.2,286047001.8,N
1503819055.0,286047003.4,N
1503819056.0,286047003.4,N
1503819075.8,286047001.3,N
1503819095.6,286047001.5,N
1503819115.4,286047001.4,N
1503819135.3,286047003.4,N
1503819155.1,286047003.7,N
1503819175.8,286047002.3,N
1503819195.7,286047000.4,N
1503819215.5,286047002.5,N
1503819235.3,286047000.3,N
1503819255.2,286046998.5,N
1503819275.9,286046998.1,N
1503819295.7,286047000.6,N
1503819315.6,286047000.5,N
1503819335.4,286047002.2,N
1503819355.2,286047000.2,N
1503819375.1,286046998.6,N
1503819376.0,286046998.6,N
1503819395.8,286047002.4,N
1503819415.6,286047001.6,N
1503819435.5,286047000.1,N
1503819455.9,286047002.3,N
1503819475.7,286047000.4,N
1503819495.5,286047000.9,N
1503819515.4,286046998.2,N
1503819535.2,286047002.2,N
1503819555.0,286046999.7,N
1503819555.9,286046999.7,N
1503819575.7,286047001.2,N
1503819595.6,286046998.9,N
1503819615.4,286047000.7,N
1503819635.2,286046996.6,N
1503819655.1,286047000.8,N
1503819656.0,286047000.8,N
1503819675.8,286047001.2,N
1503819695.6,286046998.5,N
1503819715.5,286046996.7,N
1503819735.3,286046996.5,N
1503819755.1,286046997.2,N
1503819775.9,286046997.2,N
1503819795.7,286046997.2,N
1503819815.5,286046997.8,N
1503819835.4,286046997.2,N
1503819855.2,286046996.6,N
1503819875.0,286047000.9,N
1503819875.9,286047000.9,N
1503819895.8,286046999.1,N
1503819915.6,286046998.9,N
1503819935.4,286046997.7,N
1503819955.3,286046995.5,N
1503819975.1,286046996.8,N
1503819976.0,286046996.8,N
1503819995.8,286046997.8,N
1503820015.6,286046995.7,N
1503820035.5,286046998.0,N
1503820055.3,286046996.2,N
1503820075.1,286046996.4,N
1503820095.9,286046993.9,P
1503820115.7,286046996.3,N
1503820135.5,286046995.7,N
1503820155.4,286046994.1,P
1503820175.2,286046999.5,N
1503820195.1,286046998.4,N
1503820196.0,286046998.4,N
1503820215.8,286047000.8,N
1503820235.6,286046998.1,N
1503820255.5,286047000.5,N
1503820275.3,286047002.2,N
1503820295.1,286047002.1,N
1503820315.3,286047002.1,N
1503820335.1,286047000.6,N
1503820355.8,286047000.3,N
1503820375.7,286046998.1,N
1503820395.5,286047000.8,N
1503820415.3,286046999.9,N
1503820435.2,286047000.4,N
1503820455.0,286046998.3,N
1503820455.9,286046998.3,N
1503820475.7,286046998.8,N
1503820495.6,286047000.7,N
1503820515.4,286047001.0,N
1503820535.2,286046998.5,N
1503820555.1,286046997.3,N
1503820556.0,286046997.3,N
1503820575.8,286046997.4,N
1503820595.6,286046995.7,N
1503820615.5,286046993.9,P
1503820635.3,286046995.9,N
1503820655.1,286046996.3,N
1503820675.9,286046996.3,N
1503820695.7,286046993.2,P
1503820715.5,286046993.4,P
1503820735.4,286046992.1,P
1503820755.2,286046993.0,P
1503820775.7,286046998.6,P
1503820795.5,286046998.5,N
